When you browse on this site, cookies collect data to enhance your experience and personalize the content and advertising you see.
Visit our Privacy Policy to learn more. By continuing to use the site, you agree to this use of cookies and data.
  • In Germany
  • List of Countries
  • For 7 days
  • Water Temperature
  • Weather Map
  • Weather Widgets
  • user-avatar
    Login

    Hourly Weather Parakou

    Today, 21 November, Thursday

    Time Temperature Precipitation Wind Pressure Humidity
    00:00 +28°C° 0 mm 1 mps 727 mmHg 36%
    01:00 +27°C° 0 mm 1 mps 726 mmHg 38%
    02:00 +27°C° 0 mm 1 mps 726 mmHg 40%
    03:00 +26°C° 0 mm 1 mps 725 mmHg 42%
    04:00 +26°C° 0 mm 1 mps 726 mmHg 46%
    05:00 +25°C° 0 mm 1 mps 726 mmHg 50%
    06:00 +23°C° 0 mm 0 mps 726 mmHg 53%
    07:00 +25°C° 0 mm 0 mps 727 mmHg 49%
    08:00 +27°C° 0 mm 0 mps 727 mmHg 46%
    09:00 +30°C° 0 mm 0 mps 728 mmHg 43%
    10:00 +31°C° 0 mm 0 mps 727 mmHg 37%
    11:00 +35°C° 0 mm 1 mps 727 mmHg 31%
    12:00 +35°C° 0 mm 0 mps 726 mmHg 27%
    13:00 +37°C° 0 mm 1 mps 726 mmHg 24%
    14:00 +37°C° 0 mm 1 mps 725 mmHg 22%
    15:00 +37°C° 0 mm 1 mps 724 mmHg 20%
    16:00 +35°C° 0 mm 1 mps 725 mmHg 23%
    17:00 +33°C° 0 mm 1 mps 725 mmHg 26%
    18:00 +29°C° 0 mm 0 mps 725 mmHg 29%
    19:00 +29°C° 0 mm 0 mps 725 mmHg 30%
    20:00 +28°C° 0 mm 0 mps 726 mmHg 31%
    21:00 +27°C° 0 mm 0 mps 726 mmHg 33%
    22:00 +29°C° 0 mm 1 mps 726 mmHg 34%
    23:00 +28°C° 0 mm 1 mps 726 mmHg 36%

    Tomorrow, 22 November, Friday

    Time Temperature Precipitation Wind Pressure Humidity
    00:00 +28°C° 0 mm 1 mps 726 mmHg 38%
    01:00 +27°C° 0 mm 1 mps 726 mmHg 48%
    02:00 +26°C° 0 mm 2 mps 726 mmHg 58%
    03:00 +25°C° 0 mm 2 mps 725 mmHg 69%
    04:00 +25°C° 0 mm 2 mps 726 mmHg 75%
    05:00 +25°C° 0 mm 2 mps 726 mmHg 80%
    06:00 +24°C° 0 mm 2 mps 726 mmHg 86%
    07:00 +26°C° 0 mm 2 mps 727 mmHg 78%
    08:00 +28°C° 0 mm 2 mps 727 mmHg 70%
    09:00 +29°C° 0 mm 3 mps 728 mmHg 61%
    10:00 +31°C° 0 mm 2 mps 728 mmHg 55%
    11:00 +34°C° 0 mm 2 mps 727 mmHg 48%
    12:00 +35°C° 0 mm 2 mps 727 mmHg 41%
    13:00 +35°C° 0 mm 1 mps 726 mmHg 38%
    14:00 +36°C° 0 mm 1 mps 726 mmHg 34%
    15:00 +34°C° 0 mm 0 mps 725 mmHg 31%
    16:00 +35°C° 0 mm 1 mps 725 mmHg 35%
    17:00 +33°C° 0 mm 1 mps 725 mmHg 38%
    18:00 +31°C° 0 mm 2 mps 726 mmHg 42%
    19:00 +30°C° 0 mm 2 mps 726 mmHg 48%
    20:00 +29°C° 0 mm 2 mps 727 mmHg 55%
    21:00 +28°C° 0 mm 3 mps 727 mmHg 62%
    22:00 +28°C° 0 mm 2 mps 727 mmHg 66%
    23:00 +27°C° 0 mm 2 mps 727 mmHg 69%

    Day after tomorrow, 23 November, Saturday

    Time Temperature Precipitation Wind Pressure Humidity
    00:00 +27°C° 0 mm 1 mps 727 mmHg 73%
    01:00 +26°C° 0 mm 1 mps 727 mmHg 77%
    02:00 +26°C° 0 mm 1 mps 726 mmHg 81%
    03:00 +25°C° 0 mm 1 mps 726 mmHg 84%
    04:00 +25°C° 0 mm 1 mps 726 mmHg 87%
    05:00 +25°C° 0 mm 1 mps 726 mmHg 89%
    06:00 +25°C° 0 mm 1 mps 726 mmHg 92%
    07:00 +27°C° 0 mm 1 mps 727 mmHg 81%
    08:00 +29°C° 0 mm 1 mps 727 mmHg 70%
    09:00 +31°C° 0 mm 2 mps 728 mmHg 60%
    10:00 +33°C° 0 mm 1 mps 727 mmHg 50%
    11:00 +36°C° 0 mm 1 mps 727 mmHg 41%
    12:00 +39°C° 0 mm 1 mps 726 mmHg 31%
    13:00 +39°C° 0 mm 1 mps 726 mmHg 29%
    14:00 +39°C° 0 mm 1 mps 725 mmHg 26%
    15:00 +39°C° 0 mm 2 mps 724 mmHg 23%
    16:00 +37°C° 0 mm 2 mps 725 mmHg 27%
    17:00 +35°C° 0 mm 2 mps 725 mmHg 31%
    18:00 +32°C° 0 mm 2 mps 725 mmHg 36%
    19:00 +31°C° 0 mm 1 mps 726 mmHg 39%
    20:00 +30°C° 0 mm 1 mps 726 mmHg 43%
    21:00 +29°C° 0 mm 1 mps 727 mmHg 47%
    22:00 +29°C° 0 mm 1 mps 727 mmHg 52%
    23:00 +28°C° 0 mm 1 mps 726 mmHg 57%

    24 November, Sunday

    Time Temperature Precipitation Wind Pressure Humidity
    00:00 +28°C° 0 mm 1 mps 726 mmHg 62%
    01:00 +27°C° 0 mm 1 mps 726 mmHg 67%
    02:00 +27°C° 0 mm 2 mps 726 mmHg 72%
    03:00 +26°C° 0 mm 2 mps 725 mmHg 78%
    04:00 +26°C° 0 mm 2 mps 726 mmHg 83%
    05:00 +25°C° 0 mm 1 mps 726 mmHg 88%
    06:00 +24°C° 0 mm 1 mps 726 mmHg 93%
    07:00 +26°C° 0 mm 2 mps 727 mmHg 86%
    08:00 +28°C° 0 mm 2 mps 727 mmHg 78%
    09:00 +29°C° 0 mm 2 mps 727 mmHg 71%
    10:00 +32°C° 0 mm 1 mps 727 mmHg 59%
    11:00 +35°C° 0 mm 1 mps 727 mmHg 47%
    12:00 +36°C° 0 mm 0 mps 727 mmHg 35%
    13:00 +39°C° 0 mm 1 mps 726 mmHg 32%
    14:00 +39°C° 0 mm 1 mps 725 mmHg 29%
    15:00 +39°C° 0 mm 1 mps 724 mmHg 27%
    16:00 +36°C° 0 mm 1 mps 725 mmHg 30%
    17:00 +34°C° 0 mm 1 mps 725 mmHg 33%
    18:00 +32°C° 0 mm 1 mps 725 mmHg 36%
    19:00 +31°C° 0 mm 1 mps 725 mmHg 45%
    20:00 +30°C° 0 mm 2 mps 726 mmHg 55%
    21:00 +29°C° 0 mm 2 mps 726 mmHg 64%
    22:00 +28°C° 0 mm 2 mps 726 mmHg 69%
    23:00 +28°C° 0 mm 2 mps 726 mmHg 73%

    25 November, Monday

    Time Temperature Precipitation Wind Pressure Humidity
    00:00 +27°C° 0 mm 2 mps 726 mmHg 78%
    01:00 +27°C° 0 mm 1 mps 726 mmHg 80%
    02:00 +26°C° 0 mm 1 mps 725 mmHg 82%
    03:00 +25°C° 0 mm 1 mps 725 mmHg 84%
    04:00 +25°C° 0 mm 1 mps 726 mmHg 87%
    05:00 +25°C° 0 mm 1 mps 726 mmHg 89%
    06:00 +25°C° 0 mm 1 mps 726 mmHg 92%
    07:00 +27°C° 0 mm 1 mps 727 mmHg 82%
    08:00 +29°C° 0 mm 1 mps 727 mmHg 72%
    09:00 +31°C° 0 mm 2 mps 727 mmHg 63%
    10:00 +34°C° 0 mm 2 mps 727 mmHg 51%
    11:00 +35°C° 0 mm 1 mps 726 mmHg 39%
    12:00 +39°C° 0 mm 1 mps 726 mmHg 28%
    13:00 +39°C° 0 mm 2 mps 725 mmHg 25%
    14:00 +39°C° 0 mm 2 mps 725 mmHg 23%
    15:00 +39°C° 0 mm 2 mps 724 mmHg 20%
    16:00 +37°C° 0 mm 2 mps 724 mmHg 24%
    17:00 +35°C° 0 mm 2 mps 724 mmHg 27%
    18:00 +32°C° 0 mm 2 mps 725 mmHg 31%
    19:00 +31°C° 0 mm 1 mps 725 mmHg 32%
    20:00 +31°C° 0 mm 1 mps 726 mmHg 33%
    21:00 +30°C° 0 mm 1 mps 726 mmHg 35%
    22:00 +29°C° 0 mm 1 mps 726 mmHg 42%
    23:00 +28°C° 0 mm 2 mps 726 mmHg 49%

    26 November, Tuesday

    Time Temperature Precipitation Wind Pressure Humidity
    00:00 +27°C° 0 mm 2 mps 726 mmHg 56%
    01:00 +27°C° 0 mm 2 mps 726 mmHg 65%
    02:00 +26°C° 0 mm 1 mps 725 mmHg 74%
    03:00 +26°C° 0 mm 1 mps 725 mmHg 84%
    04:00 +25°C° 0 mm 1 mps 725 mmHg 88%
    05:00 +25°C° 0 mm 1 mps 726 mmHg 92%
    06:00 +24°C° 0 mm 1 mps 726 mmHg 96%
    07:00 +27°C° 0 mm 1 mps 727 mmHg 84%
    08:00 +29°C° 0 mm 1 mps 727 mmHg 73%
    09:00 +31°C° 0 mm 2 mps 728 mmHg 62%
    10:00 +33°C° 0 mm 1 mps 727 mmHg 50%
    11:00 +36°C° 0 mm 1 mps 727 mmHg 39%
    12:00 +40°C° 0 mm 1 mps 726 mmHg 27%
    13:00 +39°C° 0 mm 1 mps 725 mmHg 24%
    14:00 +39°C° 0 mm 1 mps 725 mmHg 22%
    15:00 +39°C° 0 mm 2 mps 724 mmHg 19%
    16:00 +37°C° 0 mm 2 mps 724 mmHg 22%
    17:00 +34°C° 0 mm 1 mps 724 mmHg 26%
    18:00 +32°C° 0 mm 1 mps 725 mmHg 29%
    19:00 +31°C° 0 mm 1 mps 725 mmHg 30%
    20:00 +31°C° 0 mm 1 mps 726 mmHg 31%
    21:00 +30°C° 0 mm 1 mps 726 mmHg 32%
    22:00 +29°C° 0 mm 1 mps 726 mmHg 35%
    23:00 +29°C° 0 mm 2 mps 726 mmHg 38%
    Show more